Printer-friendly version

IAU Minor Planet Center

Minor Planet Center

MPEC 2009-U65 : 2009 UJ14

The following Minor Planet Electronic Circular may be linked-to from your own Web pages, but must not otherwise be redistributed electronically.


Read MPEC 2009-U64 Read MPEC 2009-U66


M.P.E.C. 2009-U65                                Issued 2009 Oct. 22, 14:47 UT

     The Minor Planet Electronic Circulars contain information on unusual
         minor planets and routine data on comets.  They are published
   on behalf of Commission 20 of the International Astronomical Union by the
          Minor Planet Center, Smithsonian Astrophysical Observatory,
                          Cambridge, MA 02138, U.S.A.

             Prepared using the Tamkin Foundation Computer Network

                              MPC@CFA.HARVARD.EDU
          URL http://www.cfa.harvard.edu/iau/mpc.html  ISSN 1523-6714

                                   2009 UJ14

Observations:
     K09U14J* C2009 10 21.36818 01 54 54.64 +14 23 07.8          20.0 V EU065G96
     K09U14J  C2009 10 21.37916 01 54 53.13 +14 21 59.1          19.9 V EU065G96
     K09U14J  C2009 10 21.38851 01 54 51.87 +14 21 00.9          20.4 V EU065G96
     K09U14J  C2009 10 21.39781 01 54 50.65 +14 20 03.5          20.1 V EU065G96
     K09U14J  C2009 10 21.44238 01 54 44.64 +14 15 26.2          20.2 V EU065G96
     K09U14J  C2009 10 21.45071 01 54 43.52 +14 14 34.6          20.6 V EU065G96
     K09U14J  C2009 10 21.45901 01 54 42.40 +14 13 42.9          20.0 V EU065G96
     K09U14J  C2009 10 21.46178 01 54 42.02 +14 13 25.7          20.4 R EU065926
     K09U14J  C2009 10 21.46472 01 54 41.62 +14 13 07.7                 EU065926
     K09U14J  C2009 10 21.46742 01 54 41.29 +14 12 51.1          20.1 V EU065G96
     K09U14J 6C2009 10 21.59031 01 54 25.33 +14 00 14.0          20.3 R EU065F65
     K09U14J 6C2009 10 21.59151 01 54 25.15 +14 00 06.3          20.5 R EU065F65
     K09U14J 6C2009 10 21.59223 01 54 25.08 +14 00 01.4          20.4 R EU065F65
     K09U14J  C2009 10 22.24670 01 53 03.12 +12 53 17.4          20.2 V EU065G96
     K09U14J  C2009 10 22.25042 01 53 02.61 +12 52 55.0          20.1 V EU065G96
     K09U14J  C2009 10 22.25419 01 53 02.11 +12 52 31.8          19.8 V EU065G96
     K09U14J  C2009 10 22.25801 01 53 01.60 +12 52 09.0          20.4 V EU065G96
     K09U14J  C2009 10 22.28932 01 52 57.54 +12 48 59.3          19.6 V EU065G96
     K09U14J  C2009 10 22.29644 01 52 56.60 +12 48 15.8          19.6 V EU065G96
     K09U14J  C2009 10 22.30356 01 52 55.66 +12 47 33.2          19.5 V EU065G96
     K09U14J  C2009 10 22.31086 01 52 54.69 +12 46 48.7          19.6 V EU065G96
     K09U14J  C2009 10 22.36333 01 52 47.85 +12 41 31.9          20.1 V EU065G96
     K09U14J  C2009 10 22.37227 01 52 46.66 +12 40 38.1          20.3 V EU065G96
     K09U14J  C2009 10 22.37720 01 52 46.02 +12 40 08.2          20.5 R EU065926
     K09U14J  C2009 10 22.38015 01 52 45.63 +12 39 51.0          20.6 R EU065926
     K09U14J  C2009 10 22.38233 01 52 45.37 +12 39 37.0          20.2 V EU065G96
     K09U14J  C2009 10 22.38308 01 52 45.28 +12 39 33.3          20.5 R EU065926
     K09U14J  C2009 10 22.39122 01 52 44.22 +12 38 43.6          20.1 V EU065G96
     K09U14J  C2009 10 22.40269 01 52 42.74 +12 37 34.3          19.9 V EU065G96
     K09U14J  C2009 10 22.42219 01 52 40.26 +12 35 36.8          19.6 V EU065G96
     K09U14J  C2009 10 22.43190 01 52 38.96 +12 34 37.8          19.9 V EU065G96

Observer details:
926 Tenagra II Observatory.  Observers P. R. Holvorcem, M. Schwartz.  Measurer
    P. R. Holvorcem.  0.81-m f/7 Ritchey-Chretien + CCD.
F65 Haleakala-Faulkes Telescope North.  Observer R. Miles.  2.0-m f/10.0
    Ritchey-Chretien + CCD.
G96 Mt. Lemmon Survey.  Observer A. D. Grauer.  Measurers E. C. Beshore,
    A. Boattini, G. J. Garradd, A. R. Gibbs, A. D. Grauer, R. E. Hill,
    R. A. Kowalski, S. M. Larson, R. H. McNaught.  1.5-m reflector + CCD.

Orbital elements:
2009 UJ14                                                Earth MOID = 0.4304 AU
Epoch 2010 Jan. 4.0 TT = JDT 2455200.5                  MPC
M  25.29453              (2000.0)            P               Q
n   0.15958632     Peri.  102.59582     +0.43376621     +0.79246488
a   3.3661925      Node   209.77472     -0.62789765     +0.60715280
e   0.6891141      Incl.   59.70423     +0.64621314     +0.05800768
P   6.18           H   20.4           G   0.15           U   8
Residuals in seconds of arc
091021 G96  0.1+  0.0     091021 F65  0.2-  0.1+    091022 G96  0.3-  0.1+
091021 G96  0.2-  0.3-    091021 F65  0.1+  0.3-    091022 926  0.2-  0.3-
091021 G96  0.1-  0.4-    091022 G96  0.2+  0.2+    091022 926  0.3-  0.4+
091021 G96  0.5+  0.1+    091022 G96  0.1-  0.3+    091022 G96  0.0   0.2-
091021 G96  0.2+  0.0     091022 G96  0.2-  0.1-    091022 926  0.1+  0.4+
091021 G96  0.1+  0.2+    091022 G96  0.3-  0.2+    091022 G96  0.0   0.1+
091021 G96  0.1-  0.1+    091022 G96  0.3+  0.1-    091022 G96  0.1+  0.1+
091021 926  0.2-  0.2-    091022 G96  0.2+  0.6-    091022 G96  0.6+  0.3+
091021 926  0.3-  0.1+    091022 G96  0.1+  0.1-    091022 G96  0.2-  0.0
091021 G96  0.0   0.5+    091022 G96  0.1-  0.5-
091021 F65  0.1+  0.4+    091022 G96  0.1+  0.1-

Ephemeris:
2009 UJ14                a,e,i = 3.37, 0.69, 60                  q = 1.0465
Date    TT    R. A. (2000) Decl.     Delta      r     Elong.  Phase     V
2009 10 16    02 07.95   +24 14.0    0.496    1.475   161.3    12.5    20.5
2009 10 26    01 45.84   +06 57.3    0.570    1.562   173.4     4.2    20.5
2009 11 05    01 32.09   -05 00.0    0.703    1.650   153.3    15.6    21.6
2009 11 15    01 24.74   -12 14.0    0.873    1.739   138.1    22.3    22.4

Sonia Keys                   (C) Copyright 2009 MPC           M.P.E.C. 2009-U65

Read MPEC 2009-U64 Read MPEC 2009-U66

Valid HTML 4.01!